EW4650 Weather Reports


time (UTC)temp
C
wind
direction
speed
KPH
gust
KPH
rain 1hr
cm
rain 24hr
cm
rain mn
cm
humidity
%
barometer
mb
20260506015022 24 188 4.8 9.7 0.00 0.00 0.00 84 1004.3
20260506014522 24 163 4.8 12.9 0.00 0.00 0.00 84 1004.3
20260506014019 24 164 6.4 12.9 0.00 0.00 0.00 84 1004.2
20260506013519 24 160 8.0 11.3 0.00 0.00 0.00 83 1004.2
20260506013035 25 169 8.0 12.9 0.00 0.00 0.00 83 1004.2
20260506012519 25 176 8.0 12.9 0.00 0.00 0.00 82 1004.1
20260506012019 25 165 6.4 12.9 0.00 0.00 0.00 82 1004.0
20260506011525 25 156 6.4 11.3 0.00 0.00 0.00 80 1003.9
20260506011018 25 146 3.2 11.3 0.00 0.00 0.00 79 1003.8
20260506010518 26 144 4.8 9.7 0.00 0.00 0.00 79 1003.8
20260506010021 26 155 4.8 11.3 0.00 0.00 0.00 78 1003.7
20260506005517 26 165 4.8 11.3 0.00 0.00 0.00 77 1003.7
20260506005017 26 153 4.8 11.3 0.00 0.00 0.00 77 1003.7
20260506004518 26 186 4.8 11.3 0.00 0.00 0.00 76 1003.8
20260506004017 27 163 4.8 11.3 0.00 0.00 0.00 75 1003.8
20260506003517 27 187 4.8 9.7 0.00 0.00 0.00 75 1003.8
20260506003016 27 147 1.6 9.7 0.00 0.00 0.00 75 1003.8
20260506002516 27 170 4.8 11.3 0.00 0.00 0.00 74 1003.8
20260506002016 27 154 6.4 11.3 0.00 0.00 0.00 74 1003.8
20260506001516 27 186 3.2 6.4 0.00 0.00 0.00 74 1003.9
20260506001016 27 186 3.2 8.0 0.00 0.00 0.00 74 1003.9
20260506000514 27 170 3.2 11.3 0.00 0.00 0.00 74 1003.9
20260506000014 27 207 4.8 11.3 0.00 0.00 0.00 73 1003.9
20260505235514 27 204 4.8 11.3 0.00 0.00 0.00 72 1003.8
20260505235017 27 189 3.2 9.7 0.00 0.00 0.00 72 1003.8
20260505234514 27 206 6.4 11.3 0.00 0.00 0.00 72 1003.9
20260505234014 27 207 4.8 12.9 0.00 0.00 0.00 71 1003.9
20260505233513 27 202 6.4 12.9 0.00 0.00 0.00 71 1003.8
20260505233021 27 217 6.4 14.5 0.00 0.00 0.00 72 1003.9
20260505232514 27 199 6.4 14.5 0.00 0.00 0.00 71 1003.8
20260505232013 27 250 4.8 17.7 0.00 0.00 0.00 71 1003.9
20260505231514 27 207 8.0 16.1 0.00 0.00 0.00 70 1003.8
20260505231014 28 186 9.7 17.7 0.00 0.00 0.00 70 1003.7
20260505230514 28 180 9.7 14.5 0.00 0.00 0.00 69 1003.8
20260505230012 28 220 8.0 14.5 0.00 0.00 0.00 69 1003.8
20260505225511 28 212 6.4 14.5 0.00 0.00 0.00 68 1003.7
20260505225011 28 201 4.8 14.5 0.00 0.00 0.00 69 1003.8
20260505224512 27 187 6.4 17.7 0.00 0.00 0.00 69 1003.9
20260505224010 27 201 8.0 17.7 0.00 0.00 0.00 69 1003.9
20260505223509 28 218 6.4 16.1 0.00 0.00 0.00 69 1003.9
20260505223008 28 202 9.7 19.3 0.00 0.00 0.00 69 1003.9
20260505222512 28 178 8.0 19.3 0.00 0.00 0.00 70 1004.0
20260505222008 28 215 11.3 16.1 0.00 0.00 0.00 68 1004.1
20260505221508 28 221 9.7 16.1 0.00 0.00 0.00 68 1004.0
20260505221010 28 228 6.4 16.1 0.00 0.00 0.00 69 1004.0
20260505220506 28 233 6.4 17.7 0.00 0.00 0.00 69 1004.1
20260505220015 28 196 9.7 17.7 0.00 0.00 0.00 70 1004.1
20260505215506 28 246 11.3 16.1 0.00 0.00 0.00 70 1004.3
20260505215005 28 180 11.3 16.1 0.00 0.00 0.00 71 1004.2
20260505214505 27 205 8.0 16.1 0.00 0.00 0.00 71 1004.2
20260505214004 27 257 8.0 16.1 0.00 0.00 0.00 71 1004.2
20260505213503 27 221 8.0 16.1 0.00 0.00 0.00 72 1004.3
20260505213003 27 245 8.0 17.7 0.00 0.00 0.00 71 1004.3
20260505212503 27 239 8.0 17.7 0.00 0.00 0.00 71 1004.5
20260505212003 28 236 11.3 17.7 0.00 0.00 0.00 69 1004.4
20260505211502 28 217 4.8 17.7 0.00 0.00 0.00 69 1004.5
20260505211001 27 226 11.3 17.7 0.00 0.00 0.00 71 1004.6
20260505210601 27 217 11.3 17.7 0.00 0.00 0.00 69 1004.5
20260505210107 27 163 9.7 16.1 0.00 0.00 0.00 73 1004.6
20260505205559 27 225 4.8 24.1 0.00 0.00 0.00 70 1004.7
20260505205058 27 227 14.5 25.7 0.00 0.00 0.00 70 1004.7
20260505204604 27 222 16.1 27.4 0.00 0.00 0.00 69 1004.9
20260505204056 27 228 17.7 25.7 0.00 0.00 0.00 71 1004.9
20260505203559 27 253 11.3 22.5 0.00 0.00 0.00 72 1005.0
20260505203107 27 245 11.3 22.5 0.00 0.00 0.00 72 1005.0
20260505202555 27 225 9.7 20.9 0.00 0.00 0.00 72 1005.0
20260505202056 27 194 11.3 22.5 0.00 0.00 0.00 71 1005.1
20260505201555 27 194 9.7 22.5 0.00 0.00 0.00 71 1005.1
20260505201057 27 213 9.7 20.9 0.00 0.00 0.00 73 1005.2
20260505200552 27 211 9.7 19.3 0.00 0.00 0.00 73 1005.3
20260505200101 27 194 9.7 19.3 0.00 0.00 0.00 72 1005.3
20260505195551 27 227 8.0 14.5 0.00 0.00 0.00 73 1005.4
20260505195050 27 214 4.8 12.9 0.00 0.00 0.00 73 1005.5
20260505194548 27 240 8.0 19.3 0.00 0.00 0.00 74 1005.5
20260505194046 26 190 11.3 17.7 0.00 0.00 0.00 76 1005.6
20260505193546 26 208 8.0 14.5 0.00 0.00 0.00 75 1005.7
20260505193058 26 145 8.0 20.9 0.00 0.00 0.00 74 1005.7
20260505192548 26 206 14.5 19.3 0.00 0.00 0.00 75 1005.7
20260505192043 26 213 4.8 16.1 0.00 0.00 0.00 77 1005.8
20260505191544 26 239 9.7 17.7 0.00 0.00 0.00 77 1006.0
20260505191042 26 190 11.3 17.7 0.00 0.00 0.00 78 1006.0
20260505190543 26 223 8.0 14.5 0.00 0.00 0.00 78 1006.0
20260505190044 26 184 9.7 20.9 0.00 0.00 0.00 80 1006.0
20260505185538 25 175 8.0 20.9 0.00 0.00 0.00 81 1006.1
20260505185038 25 196 9.7 20.9 0.00 0.00 0.00 81 1006.2
20260505184536 25 197 8.0 19.3 0.00 0.00 0.00 81 1006.2
20260505184035 25 249 11.3 19.3 0.00 0.00 0.00 82 1006.4
20260505183537 25 236 9.7 19.3 0.00 0.00 0.00 82 1006.5
20260505183037 24 234 8.0 14.5 0.00 0.00 0.00 83 1006.6
20260505182531 23 203 8.0 17.7 0.00 0.00 0.00 85 1006.6
20260505182031 23 225 11.3 17.7 0.00 0.00 0.00 85 1006.8
20260505181530 23 142 6.4 16.1 0.00 0.00 0.00 87 1006.9
20260505181029 23 207 6.4 16.1 0.00 0.00 0.00 89 1006.9
20260505180527 22 223 9.7 16.1 0.00 0.00 0.00 88 1006.9
20260505180025 22 267 6.4 16.1 0.00 0.00 0.00 92 1007.0
20260505175524 22 219 8.0 19.3 0.00 0.00 0.00 93 1007.0
20260505175023 22 246 12.9 19.3 0.00 0.00 0.00 96 1007.0
20260505174522 22 227 6.4 12.9 0.00 0.00 0.00 99 1007.0
20260505174021 21 198 3.2 12.9 0.00 0.00 0.00 100 1007.1
20260505173521 21 222 6.4 12.9 0.00 0.00 0.00 100 1007.1
20260505173018 20 257 8.0 12.9 0.00 0.00 0.00 100 1007.2
20260505172518 20 240 4.8 11.3 0.00 0.00 0.00 100 1007.2
20260505172022 20 238 6.4 12.9 0.00 0.00 0.00 100 1007.3
20260505171519 20 252 6.4 12.9 0.00 0.00 0.00 100 1007.3
20260505171021 20 250 4.8 12.9 0.00 0.00 0.00 100 1007.3
20260505170517 20 233 6.4 12.9 0.00 0.00 0.00 100 1007.2
20260505170017 20 232 9.7 16.1 0.00 0.00 0.00 100 1007.1
20260505165517 20 224 9.7 16.1 0.00 0.00 0.00 100 1007.1
20260505165019 20 249 8.0 16.1 0.00 0.00 0.00 100 1007.0
20260505164517 20 215 12.9 16.1 0.00 0.00 0.00 100 1007.1
20260505164017 19 210 9.7 17.7 0.00 0.00 0.00 100 1007.1
20260505163518 19 205 11.3 17.7 0.00 0.00 0.00 100 1007.0
20260505163018 19 213 8.0 12.9 0.00 0.00 0.00 100 1007.0
20260505162525 19 211 6.4 14.5 0.00 0.00 0.00 100 1007.1
20260505162015 19 187 6.4 14.5 0.00 0.00 0.00 100 1007.0
20260505161533 19 246 8.0 16.1 0.00 0.00 0.00 100 1006.9
20260505161015 19 209 8.0 16.1 0.00 0.00 0.00 100 1006.8
20260505160518 19 218 12.9 16.1 0.00 0.00 0.00 100 1006.7
20260505153014 18 215 9.7 20.9 0.00 0.00 0.00 100 1007.0
20260505152512 18 215 12.9 20.9 0.00 0.00 0.00 100 1007.0
20260505152012 18 217 9.7 17.7 0.00 0.00 0.00 100 1007.1
20260505151511 18 234 12.9 17.7 0.00 0.00 0.00 100 1006.9
20260505151012 18 219 11.3 24.1 0.00 0.00 0.00 100 1006.9
20260505150513 18 215 9.7 24.1 0.00 0.00 0.00 100 1006.9
20260505140507 18 211 16.1 30.6 0.00 0.00 0.00 99 1006.7
20260505125023 18 218 16.1 27.4 0.00 0.00 0.00 99 1006.4
20260505124523 18 227 12.9 27.4 0.00 0.00 0.00 99 1006.4
20260505124025 18 207 16.1 27.4 0.00 0.00 0.00 99 1006.3
20260505123522 18 209 14.5 30.6 0.00 0.00 0.00 99 1006.3
20260505123021 18 223 17.7 32.2 0.00 0.00 0.00 99 1006.1
20260505122520 18 224 16.1 29.0 0.00 0.00 0.00 99 1006.1
20260505122021 18 215 19.3 29.0 0.00 0.00 0.00 99 1006.0
20260505121530 18 219 17.7 29.0 0.00 0.00 0.00 99 1006.0
20260505121018 18 222 17.7 25.7 0.00 0.00 0.00 99 1005.8
20260505120519 18 212 11.3 27.4 0.00 0.00 0.00 99 1005.8
20260505120015 18 249 16.1 27.4 0.00 0.00 0.00 99 1005.8
20260505115515 18 232 14.5 30.6 0.00 0.00 0.00 99 1005.7
20260505115015 18 207 17.7 30.6 0.00 0.00 0.00 99 1005.5
20260505114515 18 184 14.5 29.0 0.00 0.00 0.00 99 1005.6
20260505114015 18 201 16.1 29.0 0.00 0.00 0.00 99 1005.6
20260505113514 18 191 16.1 25.7 0.00 0.00 0.00 99 1005.6
20260505113014 18 208 12.9 25.7 0.00 0.00 0.00 99 1005.5
20260505112514 18 216 14.5 25.7 0.00 0.00 0.00 99 1005.5
20260505112014 18 207 16.1 25.7 0.00 0.00 0.00 99 1005.5
20260505111513 18 217 14.5 24.1 0.00 0.00 0.00 98 1005.5
20260505111016 18 198 12.9 25.7 0.00 0.00 0.00 98 1005.5
20260505110516 18 213 12.9 24.1 0.00 0.00 0.00 98 1005.6
20260505102008 18 199 16.1 25.7 0.00 0.00 0.00 98 1005.6
20260505101510 18 209 16.1 24.1 0.00 0.00 0.00 98 1005.6
20260505101009 18 213 12.9 27.4 0.00 0.00 0.00 98 1005.6
20260505100508 18 207 17.7 27.4 0.00 0.00 0.00 98 1005.6
20260505100015 18 226 12.9 24.1 0.00 0.00 0.00 97 1005.6
20260505095508 18 225 16.1 30.6 0.00 0.00 0.00 97 1005.7
20260505095006 18 186 14.5 30.6 0.00 0.00 0.00 97 1005.7
20260505094505 18 211 14.5 30.6 0.00 0.00 0.00 97 1005.7
20260505094009 18 226 17.7 30.6 0.00 0.00 0.00 97 1005.7
20260505093505 18 192 16.1 27.4 0.00 0.00 0.00 97 1005.8
20260505093004 18 203 17.7 29.0 0.00 0.00 0.00 97 1005.8
20260505092504 18 205 17.7 30.6 0.00 0.00 0.00 97 1005.9
20260505092004 18 192 19.3 25.7 0.00 0.00 0.00 97 1005.9
20260505091504 18 205 14.5 25.7 0.00 0.00 0.00 97 1006.0
20260505091006 18 203 14.5 25.7 0.00 0.00 0.00 97 1006.0
20260505090503 18 211 16.1 25.7 0.00 0.00 0.00 97 1005.9
20260505090002 18 200 16.1 30.6 0.00 0.00 0.00 97 1006.0
20260505085502 18 202 14.5 32.2 0.00 0.00 0.00 97 1006.0
20260505085003 18 200 19.3 33.8 0.00 0.00 0.00 97 1005.8
20260505084501 18 212 16.1 25.7 0.00 0.00 0.00 97 1006.0
20260505084100 18 213 14.5 24.1 0.00 0.00 0.00 97 1006.1
20260505083559 18 234 11.3 24.1 0.00 0.00 0.00 96 1006.1
20260505083107 18 182 14.5 25.7 0.00 0.00 0.00 96 1006.2
20260505082558 18 202 17.7 25.7 0.00 0.00 0.00 96 1006.2
20260505082057 18 211 16.1 24.1 0.00 0.00 0.00 96 1006.2
20260505081600 18 191 14.5 30.6 0.00 0.00 0.00 96 1006.2
20260505081056 18 192 11.3 25.7 0.00 0.00 0.00 96 1006.2
20260505080557 18 195 16.1 25.7 0.00 0.00 0.00 96 1006.2
20260505080054 18 216 16.1 25.7 0.00 0.00 0.00 96 1006.4
20260505075554 18 215 12.9 20.9 0.00 0.00 0.00 95 1006.5
20260505075054 18 204 11.3 22.5 0.00 0.00 0.00 95 1006.6
20260505074550 18 207 14.5 22.5 0.00 0.00 0.00 95 1006.6
20260505074052 18 205 11.3 20.9 0.00 0.00 0.00 95 1006.7
20260505073548 18 200 11.3 22.5 0.00 0.00 0.00 95 1006.7
20260505073047 18 199 11.3 20.9 0.00 0.00 0.00 94 1006.8
20260505072545 18 213 9.7 22.5 0.00 0.00 0.00 94 1006.8
20260505072044 18 197 12.9 22.5 0.00 0.00 0.00 94 1006.9
20260505071548 18 198 11.3 20.9 0.00 0.00 0.00 93 1006.9
20260505071044 18 177 12.9 22.5 0.00 0.00 0.00 93 1007.0
20260505070542 18 195 12.9 22.5 0.00 0.00 0.00 93 1007.0
20260505070041 19 214 11.3 19.3 0.00 0.00 0.00 92 1007.1
20260505065540 19 205 12.9 19.3 0.00 0.00 0.00 92 1007.1
20260505065038 19 217 11.3 24.1 0.00 0.00 0.00 91 1007.3
20260505064540 19 175 14.5 27.4 0.00 0.00 0.00 90 1007.3
20260505064038 19 193 12.9 22.5 0.00 0.00 0.00 90 1007.3
20260505063536 19 198 11.3 19.3 0.00 0.00 0.00 88 1007.5
20260505063038 20 202 11.3 17.7 0.00 0.00 0.00 88 1007.5
20260505062538 20 206 9.7 25.7 0.00 0.00 0.00 87 1007.5
20260505062035 20 192 14.5 25.7 0.00 0.00 0.00 87 1007.5
20260505061536 20 207 16.1 30.6 0.00 0.00 0.00 87 1007.5
20260505061032 20 211 16.1 30.6 0.00 0.00 0.00 87 1007.6
20260505060531 20 200 20.9 30.6 0.00 0.00 0.00 86 1007.7
20260505060036 20 197 17.7 27.4 0.00 0.00 0.00 86 1007.7
20260505055529 20 210 16.1 32.2 0.00 0.00 0.00 86 1007.7
20260505055029 20 212 17.7 32.2 0.00 0.00 0.00 86 1007.8
20260505054528 20 192 17.7 29.0 0.00 0.00 0.00 85 1007.9
20260505054027 20 192 17.7 30.6 0.00 0.00 0.00 85 1007.6
20260505053530 20 211 19.3 38.6 0.00 0.00 0.00 85 1007.7
20260505053028 20 184 20.9 38.6 0.00 0.00 0.00 85 1007.6
20260505052524 20 216 22.5 37.0 0.00 0.00 0.00 84 1007.7
20260505052024 20 219 20.9 37.0 0.00 0.00 0.00 84 1007.8
20260505051525 21 202 22.5 37.0 0.00 0.00 0.00 84 1007.8
20260505051024 21 208 20.9 37.0 0.00 0.00 0.00 84 1007.9
20260505050521 20 225 20.9 37.0 0.00 0.00 0.00 84 1008.0
20260505041519 20 214 16.1 29.0 0.00 0.00 0.00 85 1008.1
20260505041019 20 217 17.7 29.0 0.00 0.00 0.00 85 1008.1
20260505040519 20 206 12.9 24.1 0.00 0.00 0.00 85 1008.2
20260505040022 20 180 12.9 22.5 0.00 0.00 0.00 85 1008.1
20260505035522 20 206 11.3 19.3 0.00 0.00 0.00 85 1008.2
20260505035018 20 198 6.4 22.5 0.00 0.00 0.00 85 1008.2
20260505034518 20 222 9.7 20.9 0.00 0.00 0.00 85 1008.2
20260505034119 20 182 11.3 20.9 0.00 0.00 0.00 85 1008.1
20260505033519 20 213 11.3 25.7 0.00 0.00 0.00 85 1008.1
20260505033026 20 175 14.5 24.1 0.00 0.00 0.00 85 1008.1
20260505032519 20 189 12.9 22.5 0.00 0.00 0.00 85 1008.1
20260505032017 20 194 11.3 16.1 0.00 0.00 0.00 84 1008.1
20260505031517 20 192 9.7 17.7 0.00 0.00 0.00 84 1008.1
20260505031017 20 214 9.7 17.7 0.00 0.00 0.00 84 1008.1
20260505030516 20 192 8.0 16.1 0.00 0.00 0.00 84 1008.0
20260505030016 20 201 8.0 17.7 0.00 0.00 0.00 83 1008.0
20260505025516 20 192 11.3 17.7 0.00 0.00 0.00 83 1008.0
20260505025015 20 194 9.7 17.7 0.00 0.00 0.00 83 1008.1
20260505024515 20 192 9.7 22.5 0.00 0.00 0.00 83 1008.0
20260505024015 20 184 11.3 20.9 0.00 0.00 0.00 83 1008.0
20260505023515 20 186 12.9 20.9 0.00 0.00 0.00 83 1007.9
20260505023018 20 225 11.3 16.1 0.00 0.00 0.00 83 1008.0
20260505022516 21 231 9.7 19.3 0.00 0.00 0.00 83 1007.9
20260505022015 21 213 12.9 22.5 0.00 0.00 0.00 83 1008.0
20260505021515 21 207 11.3 22.5 0.00 0.00 0.00 83 1007.9
20260505021016 21 206 9.7 17.7 0.00 0.00 0.00 83 1008.0
20260505020514 21 216 9.7 16.1 0.00 0.00 0.00 82 1008.0
20260505020017 21 203 8.0 16.1 0.00 0.00 0.00 82 1007.9
20260505015513 21 192 9.7 16.1 0.00 0.00 0.00 82 1007.9